カタログに戻る

KNACKSAT

運用中科学SSO
NORAD 43806·PAYLOAD·🇹🇭 Thailand
この衛星名は、まだ公式ソースで確認されていません。

打ち上げ Dec 3, 2018 から Vandenberg Space Force Base

Loading…

次のパス (今後24時間)

TLE

最新Source: Space-Track

元期: Sep 14, 2026, 01:36 UTC

1 43806U 18099BA  26257.06709200  .00004421  00000-0  22970-3 0  9998
2 43806  97.3895 302.2334 0007771  31.8336 328.3366 15.16571991425903

AllMySatでKNACKSATをリアルタイム追跡

Download on the App Store